Find Starlink 34885

NORAD ID: 65328 Int'l Des: 2025-189 Owner: SPXS Country: US Constellation: starlink operational
LEOCIRCULAR

Current View

Loading 3D Globe...

About Starlink 34885

Description loading...

Upcoming Passes

Passes for default location (London). Set your location on the main map for personalized predictions.

Altitude History

Loading altitude history...

Two-Line Element Set

1 65328U 25189F 26150.08820140 .00017891 00000-0 58651-3 0 9990
2 65328 53.1603 188.3516 0001520 72.6483 287.4684 15.31721038 43517
Epoch: May 30, 2026 • Age: 12 hours

Current Status

Altitude 489.6 km
Velocity 7.62 km/s
Sub-Earth Point -51.64°S, 24.83°W
Launch Date Aug 27, 2025
Age 0.7 years
Type internet

Technical Details

Classification Payload
Mass 575.00 kg
Dry Mass 530.00 kg
Total Mass 575.00 kg
Length 0.30 m
Diameter 4.10 m
Span 29.00 m
Shape Box + pan
Manufacturer SPXS
Bus Type Starlink V2MO
Phase Status In Orbit
Owner/State SPXS/US

Most Searched